Tracking 29487 objects as of 11-Sep-2024
HD Live streaming from Space Station
objects crossing your sky now

KAITUO 1A

Track KAITUO 1A now!
10-day predictions
KAITUO 1A is classified as:


NORAD ID: 40904
Int'l Code: 2015-049F
Perigee: 385.8 km
Apogee: 391.4 km
Inclination: 97.5 °
Period: 92.2 minutes
Semi major axis: 6759 km
RCS: Unknown
Launch date: September 19, 2015
Source: People's Republic of China (PRC)
Launch site: Taiyaun Space Center, China (TSC)
Your satellite tracking list
Your tracking list is empty




NASA's NSSDC Master Catalog

Two Line Element Set (TLE):
1 40904U 15049F   24255.16598614  .00141334  00000-0  15880-2 0  9994
2 40904  97.4781 275.6249 0004171  45.8471 314.3129 15.62139345497790
Source of the keplerian elements: AFSPC